Time,TemperatureF,DewpointF,PressureIn,WindDirection,WindDirectionDegrees,WindSpeedMPH,WindSpeedGustMPH,Humidity,HourlyPrecipIn,Conditions,Clouds,dailyrainin,SoftwareType,DateUTC
2013-02-13 00:00:00,32.3,25.3,29.91,South,180,1.0,1.0,75,0.00,,,0.00,Wunderground v.1.15,2013-02-13 05:00:00,
2013-02-13 00:02:00,32.5,25.5,29.91,South,180,1.0,1.0,75,0.00,,,0.00,Wunderground v.1.15,2013-02-13 05:02:00,
2013-02-13 00:04:00,32.8,25.4,29.92,South,180,1.0,1.0,74,0.00,,,0.00,Wunderground v.1.15,2013-02-13 05:04:00,
2013-02-13 00:05:00,32.8,25.1,29.92,South,180,1.0,1.0,73,0.00,,,0.00,Wunderground v.1.15,2013-02-13 05:05:00,
2013-02-13 00:11:00,33.6,25.5,29.92,South,180,0.0,0.0,72,0.00,,,0.00,Wunderground v.1.15,2013-02-13 05:11:00,
2013-02-13 00:17:00,34.2,25.4,29.92,South,180,0.0,0.0,70,0.00,,,0.00,Wunderground v.1.15,2013-02-13 05:17:00,
2013-02-13 00:22:00,34.3,25.5,29.92,South,180,0.0,0.0,70,0.00,,,0.00,Wunderground v.1.15,2013-02-13 05:22:00,
2013-02-13 00:28:00,33.8,25.0,29.92,South,180,0.0,0.0,70,0.00,,,0.00,Wunderground v.1.15,2013-02-13 05:28:00,
2013-02-13 00:34:00,32.9,24.5,29.92,South,180,0.0,0.0,71,0.00,,,0.00,Wunderground v.1.15,2013-02-13 05:34:00,
2013-02-13 00:39:00,32.0,24.3,29.92,South,180,0.0,0.0,73,0.00,,,0.00,Wunderground v.1.15,2013-02-13 05:39:00,
2013-02-13 00:46:00,31.0,24.0,29.92,South,180,0.0,2.0,75,0.00,,,0.00,Wunderground v.1.15,2013-02-13 05:46:00,
2013-02-13 00:51:00,30.4,23.7,29.92,South,180,0.0,0.0,76,0.00,,,0.00,Wunderground v.1.15,2013-02-13 05:51:00,
2013-02-13 00:56:00,30.1,24.1,29.92,South,180,0.0,1.0,78,0.00,,,0.00,Wunderground v.1.15,2013-02-13 05:56:00,
2013-02-13 01:01:00,29.8,23.8,29.92,South,180,0.0,0.0,78,0.00,,,0.00,Wunderground v.1.15,2013-02-13 06:01:00,
2013-02-13 01:07:00,29.9,23.9,29.91,South,180,0.0,0.0,78,0.00,,,0.00,Wunderground v.1.15,2013-02-13 06:07:00,
2013-02-13 01:12:00,29.3,23.3,29.91,South,180,0.0,0.0,78,0.00,,,0.00,Wunderground v.1.15,2013-02-13 06:12:00,
2013-02-13 01:19:00,28.3,22.6,29.91,South,180,0.0,0.0,79,0.00,,,0.00,Wunderground v.1.15,2013-02-13 06:19:00,
2013-02-13 01:25:00,28.0,22.9,29.91,South,180,0.0,0.0,81,0.00,,,0.00,Wunderground v.1.15,2013-02-13 06:25:00,
2013-02-13 01:31:00,26.9,21.8,29.91,South,180,0.0,0.0,81,0.00,,,0.00,Wunderground v.1.15,2013-02-13 06:31:00,
2013-02-13 01:36:00,26.1,21.4,29.91,South,180,0.0,0.0,82,0.00,,,0.00,Wunderground v.1.15,2013-02-13 06:36:00,
2013-02-13 01:41:00,26.1,22.2,29.90,South,180,0.0,2.0,85,0.00,,,0.00,Wunderground v.1.15,2013-02-13 06:41:00,
2013-02-13 01:47:00,26.0,22.1,29.90,South,180,1.0,2.0,85,0.00,,,0.00,Wunderground v.1.15,2013-02-13 06:47:00,
2013-02-13 01:52:00,26.1,22.5,29.90,South,180,0.0,0.0,86,0.00,,,0.00,Wunderground v.1.15,2013-02-13 06:52:00,
2013-02-13 01:57:00,26.3,23.0,29.90,South,180,0.0,0.0,87,0.00,,,0.00,Wunderground v.1.15,2013-02-13 06:57:00,
2013-02-13 02:02:00,26.6,23.3,29.89,South,180,0.0,0.0,87,0.00,,,0.00,Wunderground v.1.15,2013-02-13 07:02:00,
2013-02-13 02:08:00,26.7,23.1,29.89,South,180,0.0,0.0,86,0.00,,,0.00,Wunderground v.1.15,2013-02-13 07:08:00,
2013-02-13 02:14:00,25.7,21.5,29.89,South,180,0.0,1.0,84,0.00,,,0.00,Wunderground v.1.15,2013-02-13 07:14:00,
2013-02-13 02:20:00,25.4,21.8,29.89,South,180,0.0,1.0,86,0.00,,,0.00,Wunderground v.1.15,2013-02-13 07:20:00,
2013-02-13 02:25:00,25.3,21.7,29.89,South,180,0.0,0.0,86,0.00,,,0.00,Wunderground v.1.15,2013-02-13 07:25:00,
2013-02-13 02:31:00,25.0,21.4,29.89,South,180,0.0,0.0,86,0.00,,,0.00,Wunderground v.1.15,2013-02-13 07:31:00,
2013-02-13 02:36:00,24.9,21.6,29.89,South,180,0.0,0.0,87,0.00,,,0.00,Wunderground v.1.15,2013-02-13 07:36:00,
2013-02-13 02:42:00,24.5,21.2,29.89,South,180,0.0,0.0,87,0.00,,,0.00,Wunderground v.1.15,2013-02-13 07:42:00,
2013-02-13 02:47:00,23.9,20.3,29.88,South,180,0.0,0.0,86,0.00,,,0.00,Wunderground v.1.15,2013-02-13 07:47:00,
2013-02-13 02:52:00,23.4,20.1,29.88,South,180,0.0,0.0,87,0.00,,,0.00,Wunderground v.1.15,2013-02-13 07:52:00,
2013-02-13 02:58:00,22.7,19.4,29.88,South,180,0.0,2.0,87,0.00,,,0.00,Wunderground v.1.15,2013-02-13 07:58:00,
2013-02-13 03:04:00,22.7,19.9,29.88,South,180,0.0,0.0,89,0.00,,,0.00,Wunderground v.1.15,2013-02-13 08:04:00,
2013-02-13 03:09:00,22.6,19.8,29.87,South,180,0.0,0.0,89,0.00,,,0.00,Wunderground v.1.15,2013-02-13 08:09:00,
2013-02-13 03:16:00,22.3,19.6,29.87,South,180,0.0,1.0,89,0.00,,,0.00,Wunderground v.1.15,2013-02-13 08:16:00,
2013-02-13 03:21:00,22.2,19.5,29.87,South,180,0.0,0.0,89,0.00,,,0.00,Wunderground v.1.15,2013-02-13 08:21:00,
2013-02-13 03:26:00,22.3,19.8,29.87,South,180,0.0,0.0,90,0.00,,,0.00,Wunderground v.1.15,2013-02-13 08:26:00,
2013-02-13 03:32:00,22.2,19.7,29.87,South,180,0.0,0.0,90,0.00,,,0.00,Wunderground v.1.15,2013-02-13 08:32:00,
2013-02-13 03:38:00,22.1,19.6,29.87,South,180,0.0,0.0,90,0.00,,,0.00,Wunderground v.1.15,2013-02-13 08:38:00,
2013-02-13 03:44:00,22.1,19.6,29.87,South,180,0.0,0.0,90,0.00,,,0.00,Wunderground v.1.15,2013-02-13 08:44:00,
2013-02-13 03:50:00,21.8,19.3,29.87,South,180,0.0,0.0,90,0.00,,,0.00,Wunderground v.1.15,2013-02-13 08:50:00,
2013-02-13 03:55:00,21.7,19.2,29.86,South,180,0.0,0.0,90,0.00,,,0.00,Wunderground v.1.15,2013-02-13 08:55:00,
2013-02-13 04:00:00,21.6,19.1,29.86,South,180,0.0,0.0,90,0.00,,,0.00,Wunderground v.1.15,2013-02-13 09:00:00,
2013-02-13 04:06:00,21.5,19.0,29.86,South,180,0.0,0.0,90,0.00,,,0.00,Wunderground v.1.15,2013-02-13 09:06:00,
2013-02-13 04:11:00,21.5,19.0,29.87,South,180,0.0,0.0,90,0.00,,,0.00,Wunderground v.1.15,2013-02-13 09:11:00,
2013-02-13 04:16:00,21.5,19.3,29.86,South,180,0.0,0.0,91,0.00,,,0.00,Wunderground v.1.15,2013-02-13 09:16:00,
2013-02-13 04:22:00,21.4,19.2,29.87,South,180,0.0,0.0,91,0.00,,,0.00,Wunderground v.1.15,2013-02-13 09:22:00,
2013-02-13 04:27:00,21.8,19.6,29.86,South,180,0.0,0.0,91,0.00,,,0.00,Wunderground v.1.15,2013-02-13 09:27:00,
2013-02-13 04:34:00,21.9,19.9,29.87,South,180,0.0,0.0,92,0.00,,,0.00,Wunderground v.1.15,2013-02-13 09:34:00,
2013-02-13 04:40:00,22.5,20.5,29.87,South,180,0.0,0.0,92,0.00,,,0.00,Wunderground v.1.15,2013-02-13 09:40:00,
2013-02-13 04:46:00,23.1,21.1,29.87,South,180,0.0,1.0,92,0.00,,,0.00,Wunderground v.1.15,2013-02-13 09:46:00,
2013-02-13 04:51:00,23.3,21.3,29.87,South,180,0.0,0.0,92,0.00,,,0.00,Wunderground v.1.15,2013-02-13 09:51:00,
2013-02-13 04:56:00,23.4,21.4,29.87,South,180,0.0,0.0,92,0.00,,,0.00,Wunderground v.1.15,2013-02-13 09:56:00,
2013-02-13 05:02:00,23.6,21.6,29.86,South,180,0.0,0.0,92,0.00,,,0.00,Wunderground v.1.15,2013-02-13 10:02:00,
2013-02-13 05:07:00,24.9,23.2,29.86,South,180,0.0,2.0,93,0.00,,,0.00,Wunderground v.1.15,2013-02-13 10:07:00,
2013-02-13 05:13:00,27.7,25.7,29.86,South,180,0.0,1.0,92,0.00,,,0.00,Wunderground v.1.15,2013-02-13 10:13:00,
2013-02-13 05:19:00,29.1,26.3,29.86,South,180,1.0,2.0,89,0.00,,,0.00,Wunderground v.1.15,2013-02-13 10:19:00,
2013-02-13 05:24:00,29.8,26.1,29.87,South,180,1.0,1.0,86,0.00,,,0.00,Wunderground v.1.15,2013-02-13 10:24:00,
2013-02-13 05:29:00,29.9,25.7,29.87,South,180,0.0,1.0,84,0.00,,,0.00,Wunderground v.1.15,2013-02-13 10:29:00,
2013-02-13 05:34:00,29.8,25.3,29.87,South,180,0.0,0.0,83,0.00,,,0.00,Wunderground v.1.15,2013-02-13 10:34:00,
2013-02-13 05:40:00,29.7,25.2,29.87,South,180,0.0,0.0,83,0.00,,,0.00,Wunderground v.1.15,2013-02-13 10:40:00,
2013-02-13 05:46:00,29.2,24.4,29.86,South,180,0.0,0.0,82,0.00,,,0.00,Wunderground v.1.15,2013-02-13 10:46:00,
2013-02-13 05:52:00,28.5,24.0,29.86,South,180,0.0,0.0,83,0.00,,,0.00,Wunderground v.1.15,2013-02-13 10:52:00,
2013-02-13 05:57:00,28.2,24.0,29.86,South,180,0.0,0.0,84,0.00,,,0.00,Wunderground v.1.15,2013-02-13 10:57:00,
2013-02-13 06:02:00,28.0,23.8,29.86,South,180,0.0,0.0,84,0.00,,,0.00,Wunderground v.1.15,2013-02-13 11:02:00,
2013-02-13 06:08:00,27.7,23.8,29.86,South,180,0.0,0.0,85,0.00,,,0.00,Wunderground v.1.15,2013-02-13 11:08:00,
2013-02-13 06:13:00,27.6,23.7,29.86,South,180,0.0,0.0,85,0.00,,,0.00,Wunderground v.1.15,2013-02-13 11:13:00,
2013-02-13 06:19:00,27.6,24.0,29.85,South,180,0.0,0.0,86,0.00,,,0.00,Wunderground v.1.15,2013-02-13 11:19:00,
2013-02-13 06:26:00,27.5,23.9,29.86,South,180,0.0,0.0,86,0.00,,,0.00,Wunderground v.1.15,2013-02-13 11:26:00,
2013-02-13 06:32:00,27.5,23.9,29.86,South,180,0.0,0.0,86,0.00,,,0.00,Wunderground v.1.15,2013-02-13 11:32:00,
2013-02-13 06:37:00,27.6,24.2,29.85,South,180,0.0,0.0,87,0.00,,,0.00,Wunderground v.1.15,2013-02-13 11:37:00,
2013-02-13 06:43:00,27.6,24.2,29.85,South,180,0.0,0.0,87,0.00,,,0.00,Wunderground v.1.15,2013-02-13 11:43:00,
2013-02-13 06:49:00,27.5,24.1,29.85,South,180,0.0,0.0,87,0.00,,,0.00,Wunderground v.1.15,2013-02-13 11:49:00,
2013-02-13 06:56:00,27.6,24.2,29.84,South,180,0.0,0.0,87,0.00,,,0.00,Wunderground v.1.15,2013-02-13 11:56:00,
2013-02-13 07:02:00,27.8,24.7,29.84,South,180,0.0,0.0,88,0.00,,,0.00,Wunderground v.1.15,2013-02-13 12:02:00,
2013-02-13 07:08:00,28.4,25.3,29.84,South,180,0.0,1.0,88,0.00,,,0.00,Wunderground v.1.15,2013-02-13 12:08:00,
2013-02-13 07:13:00,28.8,25.4,29.84,South,180,0.0,0.0,87,0.00,,,0.00,Wunderground v.1.15,2013-02-13 12:13:00,
2013-02-13 07:19:00,29.1,25.2,29.84,South,180,0.0,0.0,85,0.00,,,0.00,Wunderground v.1.15,2013-02-13 12:19:00,
2013-02-13 07:25:00,29.3,25.4,29.84,South,180,0.0,0.0,85,0.00,,,0.00,Wunderground v.1.15,2013-02-13 12:25:00,
2013-02-13 07:31:00,29.5,25.3,29.85,South,180,0.0,0.0,84,0.00,,,0.00,Wunderground v.1.15,2013-02-13 12:31:00,
2013-02-13 07:36:00,29.7,25.5,29.85,South,180,0.0,0.0,84,0.00,,,0.00,Wunderground v.1.15,2013-02-13 12:36:00,
2013-02-13 07:41:00,29.5,25.3,29.85,South,180,0.0,0.0,84,0.00,,,0.00,Wunderground v.1.15,2013-02-13 12:41:00,
2013-02-13 07:46:00,29.5,25.5,29.86,South,180,0.0,0.0,85,0.00,,,0.00,Wunderground v.1.15,2013-02-13 12:46:00,
2013-02-13 07:51:00,29.6,25.6,29.85,South,180,0.0,0.0,85,0.00,,,0.00,Wunderground v.1.15,2013-02-13 12:51:00,
2013-02-13 07:57:00,29.8,25.8,29.86,South,180,0.0,0.0,85,0.00,,,0.00,Wunderground v.1.15,2013-02-13 12:57:00,
2013-02-13 08:02:00,29.9,25.9,29.86,South,180,0.0,0.0,85,0.00,,,0.00,Wunderground v.1.15,2013-02-13 13:02:00,
2013-02-13 08:08:00,30.3,26.3,29.86,South,180,0.0,0.0,85,0.00,,,0.00,Wunderground v.1.15,2013-02-13 13:08:00,
2013-02-13 08:13:00,30.5,26.2,29.86,South,180,0.0,0.0,84,0.00,,,0.00,Wunderground v.1.15,2013-02-13 13:13:00,
2013-02-13 08:19:00,30.8,26.5,29.86,South,180,0.0,0.0,84,0.00,,,0.00,Wunderground v.1.15,2013-02-13 13:19:00,
2013-02-13 08:24:00,31.0,27.0,29.87,South,180,0.0,0.0,85,0.00,,,0.00,Wunderground v.1.15,2013-02-13 13:24:00,
2013-02-13 08:31:00,31.2,26.9,29.86,South,180,0.0,0.0,84,0.00,,,0.00,Wunderground v.1.15,2013-02-13 13:31:00,
2013-02-13 08:36:00,31.5,27.2,29.86,South,180,0.0,0.0,84,0.00,,,0.00,Wunderground v.1.15,2013-02-13 13:36:00,
2013-02-13 08:41:00,31.7,27.1,29.86,South,180,0.0,0.0,83,0.00,,,0.00,Wunderground v.1.15,2013-02-13 13:41:00,
2013-02-13 08:46:00,31.9,27.0,29.86,South,180,0.0,0.0,82,0.00,,,0.00,Wunderground v.1.15,2013-02-13 13:46:00,
2013-02-13 08:51:00,32.2,27.0,29.85,South,180,0.0,0.0,81,0.00,,,0.00,Wunderground v.1.15,2013-02-13 13:51:00,
2013-02-13 08:57:00,32.5,27.3,29.85,South,180,0.0,0.0,81,0.00,,,0.00,Wunderground v.1.15,2013-02-13 13:57:00,
2013-02-13 09:02:00,32.8,27.6,29.84,South,180,0.0,0.0,81,0.00,,,0.00,Wunderground v.1.15,2013-02-13 14:02:00,
2013-02-13 09:08:00,33.1,27.9,29.84,South,180,0.0,0.0,81,0.00,,,0.00,Wunderground v.1.15,2013-02-13 14:08:00,
2013-02-13 09:13:00,33.5,28.3,29.84,South,180,0.0,1.0,81,0.00,,,0.00,Wunderground v.1.15,2013-02-13 14:13:00,
2013-02-13 09:19:00,33.8,28.0,29.84,South,180,0.0,1.0,79,0.00,,,0.00,Wunderground v.1.15,2013-02-13 14:19:00,
2013-02-13 09:24:00,34.1,28.0,29.84,South,180,0.0,0.0,78,0.00,,,0.00,Wunderground v.1.15,2013-02-13 14:24:00,
2013-02-13 09:29:00,34.5,28.0,29.84,South,180,0.0,0.0,77,0.00,,,0.00,Wunderground v.1.15,2013-02-13 14:29:00,
2013-02-13 09:34:00,34.8,28.0,29.83,South,180,0.0,0.0,76,0.00,,,0.00,Wunderground v.1.15,2013-02-13 14:34:00,
2013-02-13 09:40:00,35.1,28.0,29.83,South,180,0.0,0.0,75,0.00,,,0.00,Wunderground v.1.15,2013-02-13 14:40:00,
2013-02-13 09:45:00,35.6,28.1,29.83,South,180,0.0,1.0,74,0.00,,,0.00,Wunderground v.1.15,2013-02-13 14:45:00,
2013-02-13 09:51:00,36.0,27.8,29.84,South,180,0.0,0.0,72,0.00,,,0.00,Wunderground v.1.15,2013-02-13 14:51:00,
2013-02-13 09:56:00,36.4,28.2,29.84,South,180,0.0,1.0,72,0.00,,,0.00,Wunderground v.1.15,2013-02-13 14:56:00,
2013-02-13 10:01:00,36.7,28.2,29.82,South,180,1.0,2.0,71,0.00,,,0.00,Wunderground v.1.15,2013-02-13 15:01:00,
2013-02-13 10:07:00,37.1,28.2,29.82,South,180,1.0,4.0,70,0.00,,,0.00,Wunderground v.1.15,2013-02-13 15:07:00,
2013-02-13 10:12:00,37.5,28.2,29.82,South,180,1.0,1.0,69,0.00,,,0.00,Wunderground v.1.15,2013-02-13 15:12:00,
2013-02-13 10:17:00,37.9,29.0,29.82,South,180,0.0,2.0,70,0.00,,,0.00,Wunderground v.1.15,2013-02-13 15:17:00,
2013-02-13 10:22:00,38.2,28.6,29.82,South,180,0.0,0.0,68,0.00,,,0.00,Wunderground v.1.15,2013-02-13 15:22:00,
2013-02-13 10:28:00,38.4,28.8,29.81,South,180,0.0,1.0,68,0.00,,,0.00,Wunderground v.1.15,2013-02-13 15:28:00,
2013-02-13 10:34:00,38.5,28.5,29.81,South,180,0.0,0.0,67,0.00,,,0.00,Wunderground v.1.15,2013-02-13 15:34:00,
2013-02-13 10:40:00,38.4,28.0,29.82,South,180,0.0,0.0,66,0.00,,,0.00,Wunderground v.1.15,2013-02-13 15:40:00,
2013-02-13 10:46:00,38.3,28.3,29.81,South,180,0.0,0.0,67,0.00,,,0.00,Wunderground v.1.15,2013-02-13 15:46:00,
2013-02-13 10:51:00,38.4,28.8,29.81,South,180,0.0,0.0,68,0.00,,,0.00,Wunderground v.1.15,2013-02-13 15:51:00,
2013-02-13 10:57:00,38.6,28.6,29.80,WSW,248,0.0,2.0,67,0.00,,,0.00,Wunderground v.1.15,2013-02-13 15:57:00,
2013-02-13 11:02:00,38.8,29.1,29.80,WSW,248,0.0,0.0,68,0.00,,,0.00,Wunderground v.1.15,2013-02-13 16:02:00,
2013-02-13 11:08:00,39.4,29.7,29.80,WSW,246,0.0,1.0,68,0.00,,,0.00,Wunderground v.1.15,2013-02-13 16:08:00,
2013-02-13 11:13:00,40.1,29.6,29.80,WSW,246,0.0,2.0,66,0.00,,,0.00,Wunderground v.1.15,2013-02-13 16:13:00,
2013-02-13 11:19:00,40.9,30.8,29.79,WSW,246,1.0,2.0,67,0.00,,,0.00,Wunderground v.1.15,2013-02-13 16:19:00,
2013-02-13 11:24:00,41.5,30.2,29.78,SE,126,1.0,1.0,64,0.00,,,0.00,Wunderground v.1.15,2013-02-13 16:24:00,
2013-02-13 11:30:00,42.0,30.3,29.78,SE,126,0.0,3.0,63,0.00,,,0.00,Wunderground v.1.15,2013-02-13 16:30:00,
2013-02-13 11:36:00,41.6,29.5,29.77,SSE,156,1.0,7.0,62,0.00,,,0.00,Wunderground v.1.15,2013-02-13 16:36:00,
2013-02-13 11:41:00,41.5,29.8,29.76,NNE,17,2.0,2.0,63,0.00,,,0.00,Wunderground v.1.15,2013-02-13 16:41:00,
2013-02-13 11:47:00,41.6,29.9,29.76,SSE,156,2.0,2.0,63,0.00,,,0.00,Wunderground v.1.15,2013-02-13 16:47:00,
2013-02-13 11:52:00,41.8,30.5,29.75,SE,138,1.0,1.0,64,0.00,,,0.00,Wunderground v.1.15,2013-02-13 16:52:00,
2013-02-13 11:57:00,42.2,30.5,29.76,SE,134,1.0,1.0,63,0.00,,,0.00,Wunderground v.1.15,2013-02-13 16:57:00,
2013-02-13 12:02:00,42.2,30.1,29.76,North,355,1.0,6.0,62,0.00,,,0.00,Wunderground v.1.15,2013-02-13 17:02:00,
2013-02-13 12:07:00,42.0,29.9,29.76,North,355,1.0,6.0,62,0.00,,,0.00,Wunderground v.1.15,2013-02-13 17:07:00,
2013-02-13 12:13:00,41.9,30.2,29.76,North,355,0.0,0.0,63,0.00,,,0.00,Wunderground v.1.15,2013-02-13 17:13:00,
2013-02-13 12:19:00,41.7,29.6,29.76,North,355,0.0,1.0,62,0.00,,,0.00,Wunderground v.1.15,2013-02-13 17:19:00,
2013-02-13 12:24:00,41.5,29.8,29.76,North,355,0.0,0.0,63,0.00,,,0.00,Wunderground v.1.15,2013-02-13 17:24:00,
2013-02-13 12:29:00,41.3,29.6,29.75,North,355,0.0,0.0,63,0.00,,,0.00,Wunderground v.1.15,2013-02-13 17:29:00,
2013-02-13 12:35:00,41.3,29.6,29.75,North,355,0.0,0.0,63,0.00,,,0.00,Wunderground v.1.15,2013-02-13 17:35:00,
2013-02-13 12:40:00,41.2,29.5,29.75,North,355,0.0,1.0,63,0.00,,,0.00,Wunderground v.1.15,2013-02-13 17:40:00,
2013-02-13 12:46:00,41.1,29.8,29.75,North,355,0.0,0.0,64,0.00,,,0.00,Wunderground v.1.15,2013-02-13 17:46:00,
2013-02-13 12:51:00,41.1,29.8,29.75,North,355,0.0,0.0,64,0.00,,,0.00,Wunderground v.1.15,2013-02-13 17:51:00,
2013-02-13 12:57:00,41.0,29.7,29.74,North,355,0.0,1.0,64,0.00,,,0.00,Wunderground v.1.15,2013-02-13 17:57:00,
2013-02-13 13:04:00,40.9,29.7,29.74,North,355,0.0,0.0,64,0.00,,,0.00,Wunderground v.1.15,2013-02-13 18:04:00,
2013-02-13 13:10:00,40.8,29.6,29.74,North,355,0.0,0.0,64,0.00,,,0.00,Wunderground v.1.15,2013-02-13 18:10:00,
2013-02-13 13:16:00,40.8,29.9,29.73,North,355,0.0,2.0,65,0.00,,,0.00,Wunderground v.1.15,2013-02-13 18:16:00,
2013-02-13 13:21:00,40.8,29.9,29.73,North,355,0.0,2.0,65,0.00,,,0.00,Wunderground v.1.15,2013-02-13 18:21:00,
2013-02-13 13:27:00,40.9,30.4,29.72,North,355,0.0,2.0,66,0.00,,,0.00,Wunderground v.1.15,2013-02-13 18:27:00,
2013-02-13 13:32:00,40.9,30.4,29.72,North,355,0.0,2.0,66,0.00,,,0.00,Wunderground v.1.15,2013-02-13 18:32:00,
2013-02-13 13:38:00,40.8,30.3,29.72,North,355,0.0,2.0,66,0.00,,,0.00,Wunderground v.1.15,2013-02-13 18:38:00,
2013-02-13 13:43:00,40.6,30.5,29.72,North,355,0.0,0.0,67,0.00,,,0.00,Wunderground v.1.15,2013-02-13 18:43:00,
2013-02-13 13:49:00,40.6,30.5,29.71,North,355,0.0,1.0,67,0.00,,,0.00,Wunderground v.1.15,2013-02-13 18:49:00,
2013-02-13 13:54:00,40.9,31.1,29.70,North,355,0.0,1.0,68,0.00,,,0.00,Wunderground v.1.15,2013-02-13 18:54:00,
2013-02-13 13:59:00,41.6,32.2,29.70,North,355,0.0,1.0,69,0.00,,,0.00,Wunderground v.1.15,2013-02-13 18:59:00,
2013-02-13 14:04:00,42.2,32.4,29.69,North,355,0.0,3.0,68,0.00,,,0.00,Wunderground v.1.15,2013-02-13 19:04:00,
2013-02-13 14:10:00,42.5,31.2,29.69,North,355,0.0,3.0,64,0.00,,,0.00,Wunderground v.1.15,2013-02-13 19:10:00,
2013-02-13 14:16:00,42.6,31.3,29.69,North,355,0.0,2.0,64,0.00,,,0.00,Wunderground v.1.15,2013-02-13 19:16:00,
2013-02-13 14:21:00,42.2,30.9,29.68,WNW,293,1.0,1.0,64,0.00,,,0.00,Wunderground v.1.15,2013-02-13 19:21:00,
2013-02-13 14:26:00,41.9,31.4,29.68,North,360,2.0,3.0,66,0.00,,,0.00,Wunderground v.1.15,2013-02-13 19:26:00,
2013-02-13 14:32:00,41.5,30.6,29.69,WNW,287,2.0,4.0,65,0.00,,,0.00,Wunderground v.1.15,2013-02-13 19:32:00,
2013-02-13 14:37:00,41.0,30.1,29.68,WNW,301,2.0,4.0,65,0.00,,,0.00,Wunderground v.1.15,2013-02-13 19:37:00,
2013-02-13 14:42:00,40.8,30.3,29.68,North,5,2.0,2.0,66,0.00,,,0.00,Wunderground v.1.15,2013-02-13 19:42:00,
2013-02-13 14:49:00,40.7,30.6,29.67,North,360,1.0,2.0,67,0.00,,,0.00,Wunderground v.1.15,2013-02-13 19:49:00,
2013-02-13 14:55:00,40.7,30.2,29.67,North,355,1.0,2.0,66,0.00,,,0.00,Wunderground v.1.15,2013-02-13 19:55:00,
2013-02-13 15:01:00,40.9,30.8,29.66,North,355,1.0,1.0,67,0.00,,,0.00,Wunderground v.1.15,2013-02-13 20:01:00,
2013-02-13 15:06:00,41.0,30.5,29.66,North,360,2.0,5.0,66,0.00,,,0.00,Wunderground v.1.15,2013-02-13 20:06:00,
2013-02-13 15:11:00,40.7,30.2,29.67,North,360,2.0,2.0,66,0.00,,,0.00,Wunderground v.1.15,2013-02-13 20:11:00,
2013-02-13 15:17:00,40.6,30.1,29.67,North,360,1.0,3.0,66,0.00,,,0.00,Wunderground v.1.15,2013-02-13 20:17:00,
2013-02-13 15:22:00,40.5,30.4,29.66,WSW,242,1.0,2.0,67,0.00,,,0.00,Wunderground v.1.15,2013-02-13 20:22:00,
2013-02-13 15:27:00,40.5,30.8,29.67,West,274,1.0,2.0,68,0.00,,,0.00,Wunderground v.1.15,2013-02-13 20:27:00,
2013-02-13 15:34:00,40.5,30.0,29.67,West,274,0.0,3.0,66,0.00,,,0.00,Wunderground v.1.15,2013-02-13 20:34:00,
2013-02-13 15:39:00,40.4,29.9,29.66,West,274,0.0,4.0,66,0.00,,,0.00,Wunderground v.1.15,2013-02-13 20:39:00,
2013-02-13 15:45:00,40.2,30.1,29.66,West,274,1.0,1.0,67,0.00,,,0.00,Wunderground v.1.15,2013-02-13 20:45:00,
2013-02-13 15:51:00,40.2,30.5,29.66,West,274,0.0,2.0,68,0.00,,,0.00,Wunderground v.1.15,2013-02-13 20:51:00,
2013-02-13 15:57:00,40.0,30.3,29.67,West,274,0.0,2.0,68,0.00,,,0.00,Wunderground v.1.15,2013-02-13 20:57:00,
2013-02-13 16:05:00,39.8,30.8,29.66,West,274,1.0,1.0,70,0.00,,,0.00,Wunderground v.1.15,2013-02-13 21:05:00,
2013-02-13 16:10:00,39.7,31.1,29.66,West,274,0.0,0.0,71,0.00,,,0.00,Wunderground v.1.15,2013-02-13 21:10:00,
2013-02-13 16:16:00,39.6,31.0,29.67,West,274,0.0,0.0,71,0.00,,,0.00,Wunderground v.1.15,2013-02-13 21:16:00,
2013-02-13 16:21:00,39.4,30.8,29.67,West,274,0.0,1.0,71,0.00,,,0.00,Wunderground v.1.15,2013-02-13 21:21:00,
2013-02-13 16:26:00,39.2,30.9,29.66,West,274,0.0,3.0,72,0.00,,,0.00,Wunderground v.1.15,2013-02-13 21:26:00,
2013-02-13 16:32:00,38.9,31.3,29.66,West,274,1.0,1.0,74,0.00,,,0.00,Wunderground v.1.15,2013-02-13 21:32:00,
2013-02-13 16:38:00,38.5,31.3,29.66,West,274,0.0,2.0,75,0.00,,,0.00,Wunderground v.1.15,2013-02-13 21:38:00,
2013-02-13 16:43:00,38.1,31.5,29.66,West,274,0.0,2.0,77,0.00,,,0.00,Wunderground v.1.15,2013-02-13 21:43:00,
2013-02-13 16:49:00,37.7,31.5,29.66,West,274,0.0,2.0,78,0.00,,,0.01,Wunderground v.1.15,2013-02-13 21:49:00,
2013-02-13 16:55:00,37.1,31.5,29.66,West,274,0.0,3.0,80,0.00,,,0.01,Wunderground v.1.15,2013-02-13 21:55:00,
2013-02-13 17:01:00,36.6,31.9,29.66,West,274,1.0,1.0,83,0.07,,,0.02,Wunderground v.1.15,2013-02-13 22:01:00,
2013-02-13 17:06:00,36.1,31.7,29.66,West,274,0.0,1.0,84,0.07,,,0.02,Wunderground v.1.15,2013-02-13 22:06:00,
2013-02-13 17:12:00,35.7,31.9,29.67,West,274,0.0,0.0,86,0.04,,,0.02,Wunderground v.1.15,2013-02-13 22:12:00,
2013-02-13 17:17:00,35.3,31.8,29.67,West,274,0.0,1.0,87,0.00,,,0.02,Wunderground v.1.15,2013-02-13 22:17:00,
2013-02-13 17:23:00,35.0,31.5,29.67,West,274,0.0,0.0,87,0.00,,,0.02,Wunderground v.1.15,2013-02-13 22:23:00,
2013-02-13 17:28:00,34.7,31.5,29.67,West,274,0.0,0.0,88,0.00,,,0.02,Wunderground v.1.15,2013-02-13 22:28:00,
2013-02-13 17:34:00,34.4,31.5,29.67,West,274,0.0,0.0,89,0.00,,,0.02,Wunderground v.1.15,2013-02-13 22:34:00,
2013-02-13 17:40:00,34.2,31.3,29.67,West,274,0.0,0.0,89,0.00,,,0.03,Wunderground v.1.15,2013-02-13 22:40:00,
2013-02-13 17:46:00,34.0,31.1,29.67,West,274,0.0,0.0,89,0.00,,,0.03,Wunderground v.1.15,2013-02-13 22:46:00,
2013-02-13 17:51:00,33.8,32.8,29.67,West,274,0.0,0.0,96,0.00,,,0.03,Wunderground v.1.15,2013-02-13 22:51:00,
2013-02-13 17:57:00,33.6,31.0,29.67,West,274,0.0,0.0,90,0.00,,,0.04,Wunderground v.1.15,2013-02-13 22:57:00,
2013-02-13 18:02:00,33.5,30.9,29.68,West,274,0.0,0.0,90,0.00,,,0.04,Wunderground v.1.15,2013-02-13 23:02:00,
2013-02-13 18:09:00,33.3,31.0,29.68,West,274,0.0,0.0,91,0.00,,,0.04,Wunderground v.1.15,2013-02-13 23:09:00,
2013-02-13 18:16:00,32.9,30.6,29.69,West,274,0.0,0.0,91,0.00,,,0.04,Wunderground v.1.15,2013-02-13 23:16:00,
2013-02-13 18:21:00,32.7,30.4,29.69,West,274,0.0,0.0,91,0.00,,,0.04,Wunderground v.1.15,2013-02-13 23:21:00,
2013-02-13 18:27:00,32.6,30.5,29.69,West,274,0.0,0.0,92,0.00,,,0.04,Wunderground v.1.15,2013-02-13 23:27:00,
2013-02-13 18:34:00,32.5,30.4,29.70,West,274,0.0,0.0,92,0.00,,,0.04,Wunderground v.1.15,2013-02-13 23:34:00,
2013-02-13 18:40:00,32.4,30.6,29.70,West,274,0.0,0.0,93,0.00,,,0.04,Wunderground v.1.15,2013-02-13 23:40:00,
2013-02-13 18:46:00,32.4,30.6,29.70,West,274,0.0,0.0,93,0.00,,,0.04,Wunderground v.1.15,2013-02-13 23:46:00,
2013-02-13 18:51:00,32.4,30.6,29.70,West,274,0.0,0.0,93,0.00,,,0.04,Wunderground v.1.15,2013-02-13 23:51:00,
2013-02-13 18:56:00,32.4,30.6,29.70,West,274,0.0,0.0,93,0.00,,,0.04,Wunderground v.1.15,2013-02-13 23:56:00,
2013-02-13 19:02:00,32.3,30.5,29.70,West,274,0.0,0.0,93,0.00,,,0.04,Wunderground v.1.15,2013-02-14 00:02:00,
2013-02-13 19:08:00,32.3,30.5,29.70,West,274,0.0,0.0,93,0.00,,,0.04,Wunderground v.1.15,2013-02-14 00:08:00,
2013-02-13 19:13:00,32.3,30.5,29.71,West,274,0.0,0.0,93,0.00,,,0.04,Wunderground v.1.15,2013-02-14 00:13:00,
2013-02-13 19:19:00,32.3,30.5,29.71,West,274,0.0,0.0,93,0.00,,,0.04,Wunderground v.1.15,2013-02-14 00:19:00,
2013-02-13 19:25:00,32.3,30.5,29.71,West,274,0.0,0.0,93,0.00,,,0.04,Wunderground v.1.15,2013-02-14 00:25:00,
2013-02-13 19:30:00,32.3,30.8,29.72,West,274,0.0,0.0,94,0.00,,,0.04,Wunderground v.1.15,2013-02-14 00:30:00,
2013-02-13 19:36:00,32.2,30.7,29.72,West,274,0.0,0.0,94,0.00,,,0.04,Wunderground v.1.15,2013-02-14 00:36:00,
2013-02-13 19:41:00,32.3,30.8,29.72,West,274,0.0,0.0,94,0.00,,,0.04,Wunderground v.1.15,2013-02-14 00:41:00,
2013-02-13 19:47:00,32.3,30.8,29.72,West,274,0.0,0.0,94,0.00,,,0.04,Wunderground v.1.15,2013-02-14 00:47:00,
2013-02-13 19:52:00,32.4,30.9,29.72,West,274,0.0,0.0,94,0.00,,,0.04,Wunderground v.1.15,2013-02-14 00:52:00,
2013-02-13 19:57:00,32.5,31.0,29.73,West,274,0.0,0.0,94,0.00,,,0.04,Wunderground v.1.15,2013-02-14 00:57:00,
2013-02-13 20:02:00,32.4,30.9,29.73,West,274,0.0,0.0,94,0.00,,,0.04,Wunderground v.1.15,2013-02-14 01:02:00,
2013-02-13 20:08:00,32.3,30.8,29.73,West,274,0.0,0.0,94,0.00,,,0.04,Wunderground v.1.15,2013-02-14 01:08:00,
2013-02-13 20:13:00,32.2,30.7,29.73,West,274,0.0,0.0,94,0.00,,,0.04,Wunderground v.1.15,2013-02-14 01:13:00,
2013-02-13 20:19:00,32.2,30.7,29.73,West,274,0.0,0.0,94,0.00,,,0.04,Wunderground v.1.15,2013-02-14 01:19:00,
2013-02-13 20:24:00,32.3,30.8,29.73,West,274,0.0,0.0,94,0.00,,,0.04,Wunderground v.1.15,2013-02-14 01:24:00,
2013-02-13 20:29:00,32.2,30.7,29.73,West,274,0.0,0.0,94,0.00,,,0.04,Wunderground v.1.15,2013-02-14 01:29:00,
2013-02-13 20:34:00,32.2,30.7,29.73,West,274,0.0,0.0,94,0.00,,,0.04,Wunderground v.1.15,2013-02-14 01:34:00,
2013-02-13 20:40:00,32.2,30.7,29.74,West,274,0.0,0.0,94,0.00,,,0.04,Wunderground v.1.15,2013-02-14 01:40:00,
2013-02-13 20:45:00,32.1,30.6,29.74,West,274,0.0,0.0,94,0.00,,,0.04,Wunderground v.1.15,2013-02-14 01:45:00,
2013-02-13 20:51:00,32.2,30.7,29.74,West,274,0.0,0.0,94,0.00,,,0.04,Wunderground v.1.15,2013-02-14 01:51:00,
2013-02-13 20:57:00,32.1,30.6,29.74,West,274,0.0,0.0,94,0.00,,,0.04,Wunderground v.1.15,2013-02-14 01:57:00,
2013-02-13 21:02:00,32.1,30.6,29.74,West,274,0.0,0.0,94,0.00,,,0.04,Wunderground v.1.15,2013-02-14 02:02:00,
2013-02-13 21:08:00,32.1,30.6,29.74,West,274,0.0,0.0,94,0.00,,,0.04,Wunderground v.1.15,2013-02-14 02:08:00,
2013-02-13 21:13:00,32.1,30.6,29.74,West,274,0.0,0.0,94,0.00,,,0.05,Wunderground v.1.15,2013-02-14 02:13:00,
2013-02-13 21:19:00,32.2,30.9,29.75,West,274,0.0,0.0,95,0.00,,,0.05,Wunderground v.1.15,2013-02-14 02:19:00,
2013-02-13 21:24:00,32.1,30.8,29.75,West,274,0.0,0.0,95,0.00,,,0.05,Wunderground v.1.15,2013-02-14 02:24:00,
2013-02-13 21:31:00,32.1,30.8,29.75,West,274,0.0,0.0,95,0.00,,,0.05,Wunderground v.1.15,2013-02-14 02:31:00,
2013-02-13 21:36:00,32.1,30.8,29.75,West,274,0.0,0.0,95,0.00,,,0.05,Wunderground v.1.15,2013-02-14 02:36:00,
2013-02-13 21:41:00,32.2,30.9,29.75,West,274,0.0,0.0,95,0.00,,,0.05,Wunderground v.1.15,2013-02-14 02:41:00,
2013-02-13 21:46:00,32.2,30.9,29.75,West,274,0.0,0.0,95,0.00,,,0.05,Wunderground v.1.15,2013-02-14 02:46:00,
2013-02-13 21:51:00,32.2,30.9,29.75,West,274,0.0,0.0,95,0.00,,,0.05,Wunderground v.1.15,2013-02-14 02:51:00,
2013-02-13 21:56:00,32.3,31.0,29.75,West,274,0.0,0.0,95,0.00,,,0.05,Wunderground v.1.15,2013-02-14 02:56:00,
2013-02-13 22:01:00,32.2,30.9,29.75,West,274,0.0,0.0,95,0.00,,,0.05,Wunderground v.1.15,2013-02-14 03:01:00,
2013-02-13 22:07:00,32.1,30.8,29.75,West,274,0.0,0.0,95,0.00,,,0.05,Wunderground v.1.15,2013-02-14 03:07:00,
2013-02-13 22:12:00,32.1,30.8,29.75,West,274,0.0,0.0,95,0.00,,,0.05,Wunderground v.1.15,2013-02-14 03:12:00,
2013-02-13 22:17:00,32.2,30.9,29.75,West,274,0.0,0.0,95,0.00,,,0.05,Wunderground v.1.15,2013-02-14 03:17:00,
2013-02-13 22:22:00,32.2,30.9,29.75,West,274,0.0,0.0,95,0.00,,,0.05,Wunderground v.1.15,2013-02-14 03:22:00,
2013-02-13 22:28:00,32.1,30.8,29.76,West,274,0.0,0.0,95,0.00,,,0.05,Wunderground v.1.15,2013-02-14 03:28:00,
2013-02-13 22:34:00,31.6,30.3,29.76,West,274,0.0,0.0,95,0.00,,,0.05,Wunderground v.1.15,2013-02-14 03:34:00,
2013-02-13 22:40:00,31.3,29.8,29.77,West,274,0.0,0.0,94,0.00,,,0.05,Wunderground v.1.15,2013-02-14 03:40:00,
2013-02-13 22:45:00,31.4,30.1,29.77,West,274,0.0,1.0,95,0.00,,,0.05,Wunderground v.1.15,2013-02-14 03:45:00,
2013-02-13 22:51:00,31.8,30.5,29.77,West,274,0.0,0.0,95,0.00,,,0.05,Wunderground v.1.15,2013-02-14 03:51:00,
2013-02-13 22:56:00,32.0,30.7,29.77,West,274,0.0,0.0,95,0.00,,,0.05,Wunderground v.1.15,2013-02-14 03:56:00,
2013-02-13 23:01:00,32.1,30.8,29.77,West,274,0.0,0.0,95,0.00,,,0.05,Wunderground v.1.15,2013-02-14 04:01:00,
2013-02-13 23:07:00,32.0,30.7,29.77,West,274,0.0,0.0,95,0.00,,,0.05,Wunderground v.1.15,2013-02-14 04:07:00,
2013-02-13 23:12:00,31.9,30.6,29.77,West,274,0.0,0.0,95,0.00,,,0.05,Wunderground v.1.15,2013-02-14 04:12:00,
2013-02-13 23:17:00,31.9,30.6,29.77,West,274,0.0,0.0,95,0.00,,,0.05,Wunderground v.1.15,2013-02-14 04:17:00,
2013-02-13 23:23:00,31.9,30.6,29.78,West,274,0.0,0.0,95,0.00,,,0.05,Wunderground v.1.15,2013-02-14 04:23:00,
2013-02-13 23:28:00,32.0,30.7,29.78,West,274,0.0,0.0,95,0.00,,,0.05,Wunderground v.1.15,2013-02-14 04:28:00,
2013-02-13 23:34:00,32.1,30.8,29.78,West,274,0.0,0.0,95,0.00,,,0.05,Wunderground v.1.15,2013-02-14 04:34:00,
2013-02-13 23:40:00,32.2,30.9,29.78,West,274,0.0,0.0,95,0.00,,,0.05,Wunderground v.1.15,2013-02-14 04:40:00,
2013-02-13 23:46:00,32.0,30.7,29.77,West,274,0.0,0.0,95,0.00,,,0.05,Wunderground v.1.15,2013-02-14 04:46:00,
2013-02-13 23:51:00,31.8,30.5,29.77,West,274,0.0,0.0,95,0.00,,,0.05,Wunderground v.1.15,2013-02-14 04:51:00,
2013-02-13 23:57:00,31.2,29.7,29.78,West,274,0.0,0.0,94,0.00,,,0.05,Wunderground v.1.15,2013-02-14 04:57:00,